DateTimeUTC,F1_A11,F1_S11,BsB_S11,BsG_S11,BsR_S11,BbsB_S11,BbsG_S11,BbsR_S11,BaB_A11,BaG_A11,BaR_A11,Tu_S11,T_S11,Uu_S11,U_S11,P_S11,T1_A11
2021-12-18T09:00:00Z,00000200,21000000,,,,,,,-000.38,-000.48,-000.08,18.3,25.4,,00.0,0662.3,31.0
2021-12-18T09:01:00Z,00000200,21000000,,,,,,,0000.70,0000.34,-000.04,18.3,25.4,,00.0,0662.3,31.0
2021-12-18T09:02:00Z,00000200,21000000,,,,,,,-000.39,0000.15,0000.02,18.3,25.4,,00.0,0662.3,31.0
2021-12-18T09:03:00Z,00000200,61000000,,,,,,,0000.76,0000.52,0000.44,18.3,25.4,,00.0,0662.3,31.0
2021-12-18T09:04:00Z,00000200,41000000,-000.61,0000.31,0000.17,0000.41,0000.24,0000.33,-000.04,-000.03,0000.07,18.6,25.3,,00.0,0663.2,31.0
2021-12-18T09:05:00Z,00000200,01000000,-000.09,0000.05,0000.32,-000.51,0000.59,0000.23,0000.43,0000.17,0000.03,18.7,25.3,,00.0,0663.3,31.0
2021-12-18T09:06:00Z,00000200,01000000,0000.05,0000.02,-000.12,-000.27,0000.25,0000.01,0000.20,0000.41,0000.37,18.7,25.3,,00.0,0663.3,31.0
2021-12-18T09:07:00Z,00000200,01000000,0000.02,0000.36,0000.28,0000.25,-000.13,0000.31,0000.19,-000.05,0000.11,18.7,25.3,,00.0,0663.3,31.0
2021-12-18T09:08:00Z,00000200,01000000,0000.35,0000.06,0000.28,0000.22,0000.14,0000.21,-000.16,0000.07,-000.01,18.7,25.3,,00.0,0663.3,31.0
2021-12-18T09:09:00Z,00000200,01000000,-000.53,0000.05,-000.29,0000.39,-000.03,-000.28,-000.16,-000.27,-000.17,18.7,25.3,,00.0,0663.3,31.0
2021-12-18T09:10:00Z,00000200,01000000,-000.14,0000.19,0000.33,0000.35,0000.18,0000.12,0000.48,0000.54,0000.28,18.7,25.3,,00.0,0663.3,31.0
2021-12-18T09:11:00Z,00000200,01000000,-000.14,0000.04,0000.16,0000.05,0000.25,0000.42,-000.33,-000.04,-000.10,18.7,25.2,,00.0,0663.4,31.0
2021-12-18T09:12:00Z,00000200,01000000,-000.10,-000.08,0000.17,0000.33,-000.14,0000.42,0000.26,-000.10,0000.06,18.7,25.2,,00.0,0663.4,31.0
2021-12-18T09:13:00Z,00000200,01000000,0000.36,-000.05,0000.08,0000.48,0000.12,0000.37,0000.16,0000.18,0000.02,18.7,25.3,,00.0,0663.4,31.0
2021-12-18T09:14:00Z,00000200,01000000,0000.11,0000.00,-000.34,-000.04,0000.10,-000.21,-000.08,-000.19,0000.12,18.8,25.3,,00.0,0663.4,31.0
2021-12-18T09:15:00Z,00000200,01000000,0000.29,0000.24,-000.03,0000.33,0000.23,0000.30,0000.01,0000.34,-000.01,18.8,25.3,,00.0,0663.4,31.0
2021-12-18T09:16:00Z,00000200,01000000,0000.02,0000.08,0000.03,0000.09,0000.33,0000.30,-000.02,-000.11,-000.22,18.8,25.3,,00.0,0663.4,31.0
2021-12-18T09:17:00Z,00000200,01000000,0000.49,0000.14,0000.20,0000.06,-000.05,0000.12,0000.11,-000.02,0000.26,18.8,25.3,,00.0,0663.4,31.0
2021-12-18T09:18:00Z,00000200,01000000,-000.14,-000.01,0000.14,0000.03,0000.40,0000.14,-000.04,0000.19,-000.03,18.8,25.3,,00.0,0663.4,31.0
2021-12-18T09:19:00Z,00000200,01000000,0000.02,0000.02,0000.06,-000.57,0000.02,-000.02,-000.05,-000.39,-000.09,18.8,25.3,,00.0,0663.5,31.0
2021-12-18T09:20:00Z,00000200,01000000,0000.10,0000.08,0000.35,-000.02,0000.27,0000.16,-000.24,-000.25,-000.13,18.8,25.3,,00.0,0663.5,31.0
2021-12-18T09:21:00Z,00000200,01000000,-000.67,-000.12,0000.03,0000.15,-000.05,0000.00,0000.29,0000.08,-000.09,18.8,25.3,,00.0,0663.5,31.0
2021-12-18T09:22:00Z,00000200,01000000,-000.24,0000.34,-000.09,-000.44,0000.08,-000.25,-000.51,0000.16,0000.12,18.8,25.3,,00.0,0663.5,31.0
2021-12-18T09:23:00Z,00000200,01000000,-000.52,-000.19,0000.05,-000.53,-000.14,0000.09,0000.03,-000.36,-000.37,18.7,25.3,,00.0,0663.5,30.9
2021-12-18T09:24:00Z,00000200,01000000,0000.15,-000.10,0000.24,-000.30,0000.11,0000.02,-000.02,0000.23,0000.19,18.7,25.2,,00.0,0663.5,30.9
2021-12-18T09:25:00Z,00000200,01000000,0000.14,0000.18,0000.45,-000.22,0000.05,0000.36,-000.10,-000.53,0000.26,18.7,25.2,,00.0,0663.5,30.9
2021-12-18T09:26:00Z,00000200,01000000,0000.06,-000.33,0000.08,-000.09,-000.27,0000.09,0000.12,0000.22,-000.18,18.6,25.2,,00.0,0663.5,30.9
2021-12-18T09:27:00Z,00000200,01000000,-000.52,-000.20,0000.24,0000.71,-000.12,0000.39,-000.13,0000.01,-000.17,18.6,25.2,,00.0,0663.5,30.9
2021-12-18T09:28:00Z,00000200,01000000,-000.29,0000.08,0000.30,0000.16,0000.08,0000.32,0000.08,0000.09,0000.02,18.6,25.2,,00.0,0663.6,30.9
2021-12-18T09:29:00Z,00000200,01000000,0000.52,-000.14,0000.32,0000.05,0000.36,0000.43,0000.18,0000.25,0000.07,18.7,25.2,,00.0,0663.6,30.9
2021-12-18T09:30:00Z,00000200,01000000,0000.12,-000.15,-000.02,0000.49,0000.11,-000.07,-000.20,-000.38,0000.06,18.7,25.2,,00.0,0663.6,30.9
2021-12-18T09:31:00Z,00000200,01000000,-000.12,0000.05,0000.28,0000.15,0000.03,0000.08,0000.45,0000.23,0000.38,18.7,25.2,,00.0,0663.6,31.0
2021-12-18T09:32:00Z,00000200,01000000,-000.04,0000.12,0000.05,-000.13,0000.20,0000.09,-000.10,-000.07,-000.18,18.7,25.2,,00.0,0663.6,30.9
2021-12-18T09:33:00Z,00000200,01000000,-000.97,-000.34,0000.24,0000.05,0000.11,0000.35,0000.35,0000.37,0000.27,18.7,25.2,,00.0,0663.6,30.9
2021-12-18T09:34:00Z,00000200,01000000,0000.04,0000.28,0000.23,0000.35,0000.20,0000.19,-000.00,0000.20,0000.04,18.7,25.2,,00.0,0663.7,30.9
2021-12-18T09:35:00Z,00000200,01000000,0000.63,-000.31,0000.34,0000.48,-000.02,0000.38,-000.01,-000.16,-000.09,18.7,25.2,,00.0,0663.7,31.0
2021-12-18T09:36:00Z,00000200,01000000,-000.20,0000.23,-000.10,-000.52,0000.34,0000.40,0000.08,0000.52,0000.05,18.7,25.2,,00.0,0663.7,31.0
2021-12-18T09:37:00Z,00000200,01000000,-000.17,0000.30,-000.00,0000.02,-000.01,-000.18,0000.13,-000.30,0000.24,18.6,25.2,,00.0,0663.7,30.9
2021-12-18T09:38:00Z,00000200,01000000,0000.27,-000.06,0000.23,0000.05,-000.05,0000.24,-000.08,0000.30,-000.22,18.5,25.1,,00.0,0663.6,30.9
2021-12-18T09:39:00Z,00000200,01000000,0000.25,0000.30,0000.33,-000.10,0000.14,0000.36,0000.25,-000.31,-000.23,18.4,25.1,,00.0,0663.7,30.9
2021-12-18T09:40:00Z,00000200,01000000,-000.30,0000.27,0000.11,0000.10,0000.31,0000.02,-000.12,-000.04,0000.17,18.4,25.0,,00.0,0663.7,30.9
2021-12-18T09:41:00Z,00000200,01000000,0000.45,0000.11,0000.37,0000.10,0000.53,0000.10,0000.02,-000.07,0000.15,18.4,25.0,,00.0,0663.7,30.9
2021-12-18T09:42:00Z,00000200,01000000,-000.24,0000.24,0000.09,0000.44,-000.09,0000.30,0000.00,0000.55,-000.03,18.4,25.0,,00.0,0663.7,30.9
2021-12-18T09:43:00Z,00000200,01000000,-000.35,-000.15,0000.08,-000.22,0000.49,0000.03,0000.00,-000.14,0000.42,18.4,25.0,,00.0,0663.7,30.9
2021-12-18T09:44:00Z,00000200,01000000,-000.11,0000.21,0000.15,0000.19,0000.20,0000.08,-000.14,-000.24,-000.33,18.4,25.0,,00.0,0663.7,30.9
2021-12-18T09:45:00Z,00000200,01000000,0000.49,0000.22,0000.24,0000.09,0000.09,0000.19,0000.11,-000.21,-000.16,18.5,25.0,,00.0,0663.7,30.9
2021-12-18T09:46:00Z,00000200,01000000,-000.29,-000.02,-000.19,-000.41,0000.11,0000.10,-000.24,0000.00,0000.11,18.5,25.0,,00.0,0663.8,30.9
2021-12-18T09:47:00Z,00000200,01000000,-000.69,-000.04,0000.26,0000.13,0000.21,0000.33,-000.10,0000.24,-000.25,18.5,25.0,,00.0,0663.8,30.9
2021-12-18T09:48:00Z,00000200,01000000,-000.08,-000.12,0000.06,-000.39,0000.30,0000.49,0000.31,0000.06,-000.01,18.5,25.0,,00.0,0663.8,30.9
2021-12-18T09:49:00Z,00000200,01000000,-000.18,-000.34,0000.32,0000.17,0000.00,0000.09,0000.04,-000.31,0000.02,18.5,25.0,,00.0,0663.8,30.9
2021-12-18T09:50:00Z,00000200,01000000,0000.14,0000.30,0000.05,-000.18,0000.21,0000.07,-000.36,0000.53,0000.17,18.6,25.0,,00.0,0663.9,31.0
2021-12-18T09:51:00Z,00000200,01000000,0000.41,-000.09,0000.14,-000.13,-000.07,0000.01,0000.15,-000.75,0000.22,18.6,25.0,,00.0,0663.9,31.0
2021-12-18T09:52:00Z,00000200,01000000,-000.26,0000.39,-000.15,0000.20,0000.38,0000.20,-000.08,0000.22,-000.18,18.6,25.0,,00.0,0663.9,30.9
2021-12-18T09:53:00Z,00000200,01000000,-000.32,-000.01,-000.03,-000.07,0000.25,0000.23,0000.02,-000.13,-000.17,18.5,25.0,,00.0,0663.9,30.9
2021-12-18T09:54:00Z,00000200,01000000,0000.30,0000.24,0000.32,0000.37,-000.07,0000.17,0000.33,0000.32,0000.12,18.5,25.0,,00.0,0663.9,30.9
2021-12-18T09:55:00Z,00000200,01000000,-000.35,-000.02,0000.54,-000.31,-000.01,-000.01,0000.22,0000.04,0000.46,18.5,25.0,,00.0,0663.9,30.9
2021-12-18T09:56:00Z,00000200,01000000,0000.39,0000.16,-000.07,0000.16,0000.27,-000.07,-000.09,0000.10,-000.42,18.5,25.0,,00.0,0663.9,30.9
2021-12-18T09:57:00Z,00000200,41000000,,,,,,,-000.04,0000.27,0000.45,18.5,25.0,,00.0,0664.0,30.9
2021-12-18T09:58:00Z,00000200,61000000,,,,,,,0000.08,-000.16,-000.28,18.2,25.1,,00.0,0663.0,30.9
2021-12-18T09:59:00Z,00000200,21000000,,,,,,,-000.06,0000.17,0000.01,18.2,25.2,,00.0,0663.0,31.0
